DW7589 Weather Reports


time (UTC)temp
F
wind
direction
speed
knots
gust
knots
rain 1hr
in
rain 24hr
in
rain mn
in
humidity
%
barometer
mb
20260906200736 101 155 1.7 7.0 0.00 0.00 0.00 36 1011.3
20260906195735 101 92 1.7 4.3 0.00 0.00 0.00 39 1011.4
20260906194736 99 187 1.7 4.3 0.00 0.00 0.00 38 1011.5
20260906194236 99 141 1.7 4.3 0.00 0.00 0.00 39 1011.7
20260906193735 99 143 1.7 6.1 0.00 0.00 0.00 40 1011.7
20260906193236 99 158 1.7 6.1 0.00 0.00 0.00 39 1011.8
20260906192736 99 167 1.7 5.2 0.00 0.00 0.00 39 1011.9
20260906192236 99 181 1.7 4.3 0.00 0.00 0.00 40 1011.9
20260906191735 99 185 1.7 4.3 0.00 0.00 0.00 41 1011.9
20260906190737 98 171 1.7 7.0 0.00 0.00 0.00 41 1012.0
20260906185736 98 162 2.6 7.0 0.00 0.00 0.00 43 1012.2
20260906185237 98 154 1.7 7.0 0.00 0.00 0.00 43 1012.3
20260906184735 98 177 1.7 6.1 0.00 0.00 0.00 43 1012.3
20260906184236 97 183 1.7 4.3 0.00 0.00 0.00 43 1012.4
20260906183736 97 187 1.7 6.1 0.00 0.00 0.00 44 1012.5
20260906183236 97 193 1.7 6.1 0.00 0.00 0.00 44 1012.5
20260906182736 97 211 1.7 6.1 0.00 0.00 0.00 44 1012.5
20260906180235 97 185 1.7 5.2 0.00 0.00 0.00 47 1013.0
20260906175736 96 164 1.7 4.3 0.00 0.00 0.00 46 1013.1
20260906175235 96 150 2.6 6.1 0.00 0.00 0.00 46 1013.2
20260906174736 96 162 2.6 6.1 0.00 0.00 0.00 44 1013.2
20260906174236 96 169 2.6 6.1 0.00 0.00 0.00 44 1013.2
20260906173737 97 162 1.7 6.1 0.00 0.00 0.00 44 1013.3
20260906173235 96 120 0.9 5.2 0.00 0.00 0.00 47 1013.5
20260906172235 95 114 1.7 4.3 0.00 0.00 0.00 49 1013.6
20260906171736 94 116 1.7 3.5 0.00 0.00 0.00 51 1013.6
20260906171235 94 115 1.7 4.3 0.00 0.00 0.00 49 1013.7
20260906170736 95 129 1.7 4.3 0.00 0.00 0.00 48 1013.8
20260906170235 96 133 1.7 4.3 0.00 0.00 0.00 48 1013.9
20260906165236 96 142 2.6 6.1 0.00 0.00 0.00 48 1013.9
20260906164736 96 148 1.7 5.2 0.00 0.00 0.00 48 1013.9
20260906164235 96 131 0.9 3.5 0.00 0.00 0.00 50 1014.1
20260906163735 95 127 1.7 3.5 0.00 0.00 0.00 50 1014.1
20260906162736 94 99 1.7 7.0 0.00 0.00 0.00 52 1014.1
20260906162237 94 206 1.7 4.3 0.00 0.00 0.00 52 1014.1
20260906161736 94 182 1.7 4.3 0.00 0.00 0.00 54 1014.1
20260906161236 94 118 1.7 3.5 0.00 0.00 0.00 54 1014.2
20260906160736 93 137 1.7 4.3 0.00 0.00 0.00 54 1014.2
20260906160235 93 136 1.7 4.3 0.00 0.00 0.00 55 1014.2
20260906154738 91 188 1.7 3.5 0.00 0.00 0.00 60 1014.1
20260906154237 91 37 0.9 3.5 0.00 0.00 0.00 60 1014.1
20260906153735 91 65 0.9 2.6 0.00 0.00 0.00 60 1014.2
20260906153236 90 140 0.9 2.6 0.00 0.00 0.00 62 1014.2
20260906152735 90 133 1.7 4.3 0.00 0.00 0.00 64 1014.2
20260906152236 89 144 1.7 4.3 0.00 0.00 0.00 64 1014.2
20260906151735 89 155 1.7 3.5 0.00 0.00 0.00 64 1014.2
20260906151236 89 156 0.9 2.6 0.00 0.00 0.00 65 1014.1
20260906150236 89 127 1.7 4.3 0.00 0.00 0.00 64 1014.1
20260906145735 88 140 1.7 4.3 0.00 0.00 0.00 66 1014.1
20260906145236 88 103 1.7 3.5 0.00 0.00 0.00 65 1014.0
20260906144735 88 88 0.9 2.6 0.00 0.00 0.00 69 1014.0
20260906144236 87 159 0.9 2.6 0.00 0.00 0.00 70 1014.0
20260906143736 86 0 0.0 2.6 0.00 0.00 0.00 72 1014.0
20260906143236 85 199 0.9 1.7 0.00 0.00 0.00 75 1014.0
20260906142736 84 261 0.9 1.7 0.00 0.00 0.00 76 1013.9
20260906141736 82 196 0.9 1.7 0.00 0.00 0.00 79 1014.0
20260906141237 82 187 0.9 1.7 0.00 0.00 0.00 81 1014.0
20260906140736 82 173 0.9 2.6 0.00 0.00 0.00 81 1014.1
20260906140237 81 156 0.9 3.5 0.00 0.00 0.00 82 1014.2
20260906135736 81 143 1.7 3.5 0.00 0.00 0.00 83 1014.3
20260906134736 80 139 0.9 3.5 0.00 0.00 0.00 85 1014.2
20260906133236 79 157 0.9 2.6 0.00 0.00 0.00 86 1014.2
20260906132236 78 155 0.9 1.7 0.00 0.00 0.00 87 1014.1
20260906131736 78 149 0.9 1.7 0.00 0.00 0.00 87 1014.2
20260906131237 77 146 0.9 1.7 0.00 0.00 0.00 88 1014.1
20260906130736 77 146 0.9 1.7 0.00 0.00 0.00 88 1014.0
20260906130236 77 149 0.9 1.7 0.00 0.00 0.00 89 1013.9
20260906125736 76 0 0.0 1.7 0.00 0.00 0.00 89 1013.8
20260906125235 76 0 0.0 1.7 0.00 0.00 0.00 89 1013.8
20260906124736 76 0 0.0 1.7 0.00 0.00 0.00 90 1013.7
20260906124237 76 0 0.0 1.7 0.00 0.00 0.00 90 1013.7
20260906123236 75 0 0.0 1.7 0.00 0.00 0.00 90 1013.4
20260906122736 75 0 0.0 1.7 0.00 0.00 0.00 90 1013.4
20260906122236 75 0 0.0 0.9 0.00 0.00 0.00 90 1013.4
20260906121737 75 0 0.0 0.9 0.00 0.00 0.00 90 1013.3
20260906121236 75 0 0.0 0.9 0.00 0.00 0.00 90 1013.2
20260906115236 75 0 0.0 1.7 0.00 0.00 0.00 89 1013.0
20260906114736 76 0 0.0 0.9 0.00 0.00 0.00 88 1013.0
20260906114237 76 0 0.0 0.0 0.00 0.00 0.00 87 1012.9
20260906113237 76 0 0.0 0.9 0.00 0.00 0.00 86 1012.8
20260906112736 76 126 0.9 1.7 0.00 0.00 0.00 85 1012.8
20260906112236 76 130 0.9 1.7 0.00 0.00 0.00 85 1012.7
20260906111736 77 0 0.0 0.9 0.00 0.00 0.00 84 1012.7
20260906111236 77 0 0.0 0.9 0.00 0.00 0.00 83 1012.7
20260906110736 77 0 0.0 0.9 0.00 0.00 0.00 83 1012.7
20260906110238 77 0 0.0 0.9 0.00 0.00 0.00 83 1012.7
20260906105736 77 0 0.0 0.9 0.00 0.00 0.00 83 1012.5
20260906105237 77 0 0.0 0.9 0.00 0.00 0.00 83 1012.4
20260906104738 77 0 0.0 0.9 0.00 0.00 0.00 83 1012.3
20260906104236 77 0 0.0 0.0 0.00 0.00 0.00 83 1012.2
20260906103735 77 0 0.0 0.0 0.00 0.00 0.00 82 1012.2
20260906103236 78 0 0.0 0.0 0.00 0.00 0.00 82 1012.2
20260906102736 77 0 0.0 0.9 0.00 0.00 0.00 82 1012.2
20260906101736 77 0 0.0 0.9 0.00 0.00 0.00 82 1012.2
20260906101238 77 0 0.0 0.9 0.00 0.00 0.00 82 1012.1
20260906100737 77 0 0.0 0.9 0.00 0.00 0.00 82 1012.2
20260906100236 78 0 0.0 1.7 0.00 0.00 0.00 82 1012.2
20260906095736 78 0 0.0 1.7 0.00 0.00 0.00 81 1012.2
20260906095236 78 0 0.0 1.7 0.00 0.00 0.00 81 1012.1
20260906094736 78 0 0.0 0.9 0.00 0.00 0.00 81 1012.1
20260906093736 78 0 0.0 1.7 0.00 0.00 0.00 81 1012.0
20260906093237 78 0 0.0 1.7 0.00 0.00 0.00 80 1012.0
20260906092236 78 0 0.0 0.9 0.00 0.00 0.00 80 1011.9
20260906091737 78 0 0.0 0.9 0.00 0.00 0.00 80 1011.8
20260906091236 78 0 0.0 0.9 0.00 0.00 0.00 80 1011.8
20260906090737 78 0 0.0 1.7 0.00 0.00 0.00 79 1011.9
20260906090237 78 0 0.0 1.7 0.00 0.00 0.00 79 1011.7
20260906085737 78 153 0.9 1.7 0.00 0.00 0.00 79 1011.7
20260906085236 79 155 0.9 1.7 0.00 0.00 0.00 78 1011.8
20260906084736 79 159 0.9 1.7 0.00 0.00 0.00 78 1011.7
20260906084236 79 163 0.9 2.6 0.00 0.00 0.00 77 1011.8
20260906083738 79 165 0.9 2.6 0.00 0.00 0.00 77 1011.7
20260906083236 79 0 0.0 2.6 0.00 0.00 0.00 77 1011.7
20260906082736 79 0 0.0 2.6 0.00 0.00 0.00 77 1011.8
20260906082236 79 0 0.0 2.6 0.00 0.00 0.00 77 1011.8
20260906081737 80 0 0.0 2.6 0.00 0.00 0.00 76 1011.8
20260906081237 80 0 0.0 1.7 0.00 0.00 0.00 76 1011.8
20260906080237 80 0 0.0 0.9 0.00 0.00 0.00 76 1011.9
20260906075736 80 0 0.0 1.7 0.00 0.00 0.00 76 1011.9
20260906075237 80 0 0.0 1.7 0.00 0.00 0.00 75 1012.0
20260906074736 80 0 0.0 1.7 0.00 0.00 0.00 75 1012.1
20260906074236 80 0 0.0 1.7 0.00 0.00 0.00 75 1012.1
20260906073736 80 0 0.0 1.7 0.00 0.00 0.00 75 1012.2
20260906073237 80 182 0.9 1.7 0.00 0.00 0.00 74 1012.2
20260906072737 80 170 0.9 1.7 0.00 0.00 0.00 74 1012.2
20260906072236 80 157 0.9 3.5 0.00 0.00 0.00 75 1012.2
20260906071236 80 157 0.9 3.5 0.00 0.00 0.00 75 1012.5
20260906070738 80 153 0.9 3.5 0.00 0.00 0.00 75 1012.6
20260906070236 80 159 0.9 1.7 0.00 0.00 0.00 75 1012.6
20260906065737 80 166 0.9 1.7 0.00 0.00 0.00 74 1012.6
20260906065236 81 162 0.9 1.7 0.00 0.00 0.00 74 1012.6
20260906064738 81 155 0.9 1.7 0.00 0.00 0.00 74 1012.7
20260906064236 81 152 0.9 1.7 0.00 0.00 0.00 73 1012.8
20260906063237 81 146 0.9 1.7 0.00 0.00 0.00 73 1012.8
20260906062736 81 146 0.9 2.6 0.00 0.00 0.00 73 1012.8
20260906062237 81 146 0.9 2.6 0.00 0.00 0.00 73 1012.8
20260906061237 82 152 0.9 3.5 0.00 0.00 0.00 72 1012.8
20260906060737 82 158 0.9 3.5 0.00 0.00 0.00 72 1012.8
20260906060236 82 158 0.9 2.6 0.00 0.00 0.00 72 1012.8
20260906055737 82 155 0.9 3.5 0.00 0.00 0.00 72 1012.9
20260906054737 82 158 0.9 1.7 0.00 0.00 0.00 71 1012.7
20260906054236 82 160 0.9 2.6 0.00 0.00 0.00 71 1012.8
20260906053737 82 162 0.9 2.6 0.00 0.00 0.00 71 1012.7
20260906053238 82 170 0.9 1.7 0.00 0.00 0.00 71 1012.8
20260906052738 82 179 0.9 1.7 0.00 0.00 0.00 70 1012.7
20260906052236 82 177 0.9 1.7 0.00 0.00 0.00 70 1012.7
20260906051737 83 179 0.9 1.7 0.00 0.00 0.00 70 1012.6
20260906051238 83 176 0.9 2.6 0.00 0.00 0.00 70 1012.6
20260906050737 83 174 0.9 2.6 0.00 0.00 0.00 69 1012.7
20260906050236 83 176 0.9 3.5 0.00 0.00 0.00 69 1012.6
20260906045737 83 168 1.7 3.5 0.00 0.00 0.00 69 1012.6
20260906045236 83 157 1.7 3.5 0.00 0.00 0.00 69 1012.7
20260906044237 84 162 2.6 5.2 0.00 0.00 0.00 69 1012.8
20260906043736 84 159 2.6 4.3 0.00 0.00 0.00 69 1012.7
20260906043238 84 159 1.7 4.3 0.00 0.00 0.00 69 1012.8
20260906042237 84 172 0.9 2.6 0.00 0.00 0.00 69 1012.6
20260906041736 84 172 1.7 3.5 0.00 0.00 0.00 69 1012.4
20260906041237 84 169 0.9 3.5 0.00 0.00 0.00 68 1012.4
20260906040736 84 164 0.9 3.5 0.00 0.00 0.00 68 1012.4
20260906035736 84 156 1.7 4.3 0.00 0.00 0.00 68 1012.6
20260906035237 85 155 2.6 4.3 0.00 0.00 0.00 68 1012.5
20260906034737 85 154 2.6 5.2 0.00 0.00 0.00 67 1012.6
20260906034237 85 154 2.6 5.2 0.00 0.00 0.00 67 1012.6
20260906033237 85 155 1.7 4.3 0.00 0.00 0.00 65 1012.5
20260906032237 86 152 2.6 5.2 0.00 0.00 0.00 65 1012.6
20260906031737 86 153 1.7 4.3 0.00 0.00 0.00 65 1012.5
20260906031236 86 154 1.7 4.3 0.00 0.00 0.00 64 1012.5
20260906030737 86 154 2.6 4.3 0.00 0.00 0.00 64 1012.4
20260906030236 86 154 2.6 4.3 0.00 0.00 0.00 63 1012.4
20260906024736 87 146 1.7 4.3 0.00 0.00 0.00 62 1012.2
20260906023736 87 148 2.6 6.1 0.00 0.00 0.00 61 1012.0
20260906023237 87 146 2.6 6.1 0.00 0.00 0.00 61 1011.9
20260906022738 88 142 2.6 4.3 0.00 0.00 0.00 61 1011.8
20260906022236 88 143 1.7 4.3 0.00 0.00 0.00 61 1011.8
20260906021737 88 149 2.6 4.3 0.00 0.00 0.00 60 1011.7
20260906021236 88 154 2.6 5.2 0.00 0.00 0.00 59 1011.6
20260906020737 88 153 2.6 7.0 0.00 0.00 0.00 59 1011.5
20260906020237 89 152 3.5 7.0 0.00 0.00 0.00 59 1011.5
20260906015736 89 152 4.3 7.0 0.00 0.00 0.00 58 1011.4
20260906014737 89 151 4.3 7.8 0.00 0.00 0.00 57 1011.4
20260906014237 90 151 3.5 7.8 0.00 0.00 0.00 57 1011.3
20260906013737 90 149 3.5 6.1 0.00 0.00 0.00 55 1011.3
20260906013238 90 146 4.3 7.0 0.00 0.00 0.00 55 1011.1
20260906012737 90 143 3.5 7.0 0.00 0.00 0.00 55 1011.1
20260906012236 90 148 2.6 7.0 0.00 0.00 0.00 54 1011.0
20260906011737 90 146 2.6 6.1 0.00 0.00 0.00 54 1010.9
20260906011236 90 146 2.6 6.1 0.00 0.00 0.00 55 1010.9
20260906010737 90 151 2.6 4.3 0.00 0.00 0.00 56 1010.9
20260906010238 91 152 2.6 6.1 0.00 0.00 0.00 55 1010.7
20260906005737 91 153 2.6 6.1 0.00 0.00 0.00 55 1010.7
20260906005236 91 153 3.5 6.1 0.00 0.00 0.00 55 1010.6
20260906004737 91 152 3.5 7.0 0.00 0.00 0.00 56 1010.7
20260906004236 92 150 3.5 7.0 0.00 0.00 0.00 55 1010.6
20260906003737 92 150 3.5 7.0 0.00 0.00 0.00 54 1010.6
20260906003238 92 144 3.5 6.1 0.00 0.00 0.00 52 1010.6
20260906001736 93 147 4.3 7.8 0.00 0.00 0.00 50 1010.6
20260906001238 93 147 3.5 7.8 0.00 0.00 0.00 49 1010.5
20260906000736 94 141 3.5 7.8 0.00 0.00 0.00 49 1010.5
20260906000237 94 141 3.5 7.8 0.00 0.00 0.00 49 1010.4
20260905235736 94 137 4.3 9.6 0.00 0.00 0.00 50 1010.5
20260905235237 94 139 5.2 9.6 0.00 0.00 0.00 49 1010.4
20260905234737 94 144 5.2 9.6 0.00 0.00 0.00 49 1010.4
20260905234237 95 136 4.3 8.7 0.00 0.00 0.00 48 1010.3
20260905233738 95 126 3.5 9.6 0.00 0.00 0.00 47 1010.4
20260905233237 96 126 3.5 9.6 0.00 0.00 0.00 46 1010.4
20260905232738 96 128 3.5 8.7 0.00 0.00 0.00 45 1010.4
20260905232236 96 122 2.6 7.0 0.00 0.00 0.00 46 1010.4
20260905231738 96 103 2.6 7.8 0.00 0.00 0.00 46 1010.4
20260905231237 96 113 2.6 7.8 0.00 0.00 0.00 45 1010.5
20260905230236 98 119 2.6 7.0 0.00 0.00 0.00 45 1010.6
20260905225737 99 139 2.6 7.0 0.00 0.00 0.00 41 1010.5
20260905224738 99 164 2.6 5.2 0.00 0.00 0.00 38 1010.2
20260905224237 99 153 3.5 6.1 0.00 0.00 0.00 38 1010.3
20260905223737 99 152 2.6 6.1 0.00 0.00 0.00 39 1010.3
20260905223237 99 154 2.6 4.3 0.00 0.00 0.00 39 1010.1
20260905222737 99 146 1.7 5.2 0.00 0.00 0.00 39 1010.1
20260905222238 100 131 2.6 6.1 0.00 0.00 0.00 38 1010.1
20260905221737 100 131 1.7 6.1 0.00 0.00 0.00 38 1010.0
20260905221237 100 143 1.7 4.3 0.00 0.00 0.00 37 1010.0
20260905220738 100 142 1.7 4.3 0.00 0.00 0.00 37 1010.1
20260905220237 100 86 1.7 4.3 0.00 0.00 0.00 36 1010.0
20260905215237 100 152 1.7 6.1 0.00 0.00 0.00 36 1010.0
20260905213237 100 137 1.7 5.2 0.00 0.00 0.00 36 1010.4
20260905212738 100 131 1.7 5.2 0.00 0.00 0.00 36 1010.5
20260905212239 100 134 1.7 5.2 0.00 0.00 0.00 37 1010.6
20260905211737 100 145 1.7 5.2 0.00 0.00 0.00 36 1010.8
20260905210737 99 144 2.6 6.1 0.00 0.00 0.00 38 1010.8
20260905210237 99 148 2.6 6.1 0.00 0.00 0.00 37 1010.8
20260905205737 100 149 1.7 4.3 0.00 0.00 0.00 38 1010.8
20260905205237 100 143 0.9 4.3 0.00 0.00 0.00 37 1010.9
20260905204738 99 146 1.7 5.2 0.00 0.00 0.00 39 1011.0
20260905204237 99 142 1.7 5.2 0.00 0.00 0.00 38 1011.1
20260905203738 100 125 1.7 4.3 0.00 0.00 0.00 37 1011.2
20260905202737 99 146 1.7 4.3 0.00 0.00 0.00 38 1011.3
20260905202237 98 151 1.7 4.3 0.00 0.00 0.00 39 1011.3
20260905201737 99 126 1.7 6.1 0.00 0.00 0.00 40 1011.5
20260905201237 99 122 2.6 6.1 0.00 0.00 0.00 40 1011.5